Back to catalog

ASTRA 2G

AliveCommunicationsGEO
NORAD 40364·PAYLOAD·🇱🇺 Luxembourg

Launched Dec 27, 2014 from Baikonur Cosmodrome

Loading…

TLE

FreshSource: CelesTrak SupGP

Epoch: Sep 13, 2026, 23:30 UTC

1 40364C 14089A   26256.97916667  .00000220  00000+0  00000+0 0  2569
2 40364   0.0289 294.4609 0002981 147.4567 291.7020  1.00264605    12

Track ASTRA 2G in real time with AllMySat

Download on the App Store